EW2910 Weather Reports


Display with metric or nautical units.
time (UTC)temp
F
wind
direction
speed
MPH
gust
MPH
rain 1hr
in
rain 24hr
in
rain mn
in
humidity
%
barometer
mb
20260902163105 89 141 0.0 9.0 0.00 0.47 0.01 75 1015.8
20260902161606 87 49 4.0 9.0 0.00 0.47 0.01 76 1016.0
20260902160108 86 27 1.0 8.0 0.00 0.47 0.01 79 1016.0
20260902154600 87 41 0.0 8.0 0.00 0.54 0.01 81 1016.3
20260902153102 86 25 2.0 9.0 0.00 0.54 0.01 81 1016.4
20260902151601 86 327 0.0 7.0 0.00 0.54 0.01 85 1016.6
20260902144604 85 26 1.0 8.0 0.00 0.56 0.01 86 1016.5
20260902143108 84 44 1.0 7.0 0.00 0.56 0.01 87 1016.4
20260902141558 82 48 2.0 10.0 0.00 0.56 0.01 92 1016.5
20260902134607 83 40 5.0 9.0 0.00 0.56 0.01 89 1016.4
20260902133105 82 58 1.0 5.0 0.00 0.56 0.01 91 1016.3
20260902131602 82 53 3.0 8.0 0.00 0.56 0.01 93 1016.3
20260902130105 81 22 2.0 7.0 0.00 0.56 0.01 96 1016.3
20260902124608 79 5 4.0 6.0 0.00 0.56 0.01 97 1016.3
20260902123104 79 0 1.0 6.0 0.00 0.56 0.01 98 1016.4
20260902121613 78 26 0.0 5.0 0.00 0.56 0.01 98 1016.3
20260902114601 77 0 0.0 2.0 0.00 0.56 0.01 98 1016.2
20260902113111 77 6 0.0 4.0 0.00 0.56 0.01 98 1016.2
20260902111604 77 0 0.0 3.0 0.00 0.56 0.01 98 1015.8
20260902110111 76 20 0.0 1.0 0.00 0.56 0.01 98 1015.8
20260902104601 76 11 0.0 3.0 0.00 0.56 0.01 98 1015.6
20260902103103 76 0 0.0 3.0 0.00 0.56 0.01 98 1015.5
20260902101607 76 0 0.0 3.0 0.00 0.56 0.01 98 1015.3
20260902100113 76 0 0.0 1.0 0.00 0.56 0.01 98 1015.4
20260902094607 76 0 0.0 1.0 0.00 0.56 0.01 98 1015.5
20260902093105 76 0 0.0 1.0 0.00 0.56 0.01 98 1015.4
20260902091623 76 0 0.0 2.0 0.00 0.56 0.01 98 1015.3
20260902090109 76 0 0.0 1.0 0.00 0.56 0.01 97 1015.1
20260902084624 76 0 0.0 1.0 0.00 0.57 0.01 97 1015.0
20260902083105 76 0 0.0 1.0 0.00 0.57 0.01 97 1015.0
20260902081608 76 327 0.0 1.0 0.00 0.57 0.01 97 1015.0
20260902080107 76 0 0.0 1.0 0.00 0.57 0.01 97 1015.1
20260902074606 76 0 0.0 3.0 0.00 0.57 0.01 97 1015.0
20260902073102 76 0 0.0 2.0 0.00 0.57 0.01 97 1015.2
20260902071617 76 0 0.0 1.0 0.00 0.57 0.01 96 1015.1
20260902070112 77 0 0.0 2.0 0.00 0.57 0.01 96 1015.4
20260902064610 77 0 0.0 2.0 0.00 0.57 0.01 96 1015.4
20260902063117 77 0 0.0 1.0 0.00 0.57 0.01 96 1015.5
20260902060109 77 0 0.0 1.0 0.00 0.57 0.01 96 1015.9
20260902054604 77 0 0.0 0.0 0.00 0.57 0.01 96 1015.7
20260902053123 77 0 0.0 0.0 0.01 0.57 0.01 97 1015.7
20260902051605 77 0 0.0 1.0 0.01 0.57 0.01 97 1015.7
20260902050121 77 0 0.0 0.0 0.01 0.57 0.01 97 1016.1
20260902044606 77 0 0.0 0.0 0.01 0.57 0.01 96 1015.9
20260902043107 77 0 0.0 0.0 0.00 0.56 0.00 96 1015.8
20260902041615 77 0 0.0 0.0 0.00 0.56 0.00 96 1016.0
20260902040106 78 0 0.0 0.0 0.00 0.56 0.00 96 1016.1
20260902034601 77 0 0.0 0.0 0.00 0.56 0.56 96 1016.2
20260902033110 77 0 0.0 0.0 0.00 0.56 0.56 96 1016.4
20260902031606 77 0 0.0 0.0 0.00 0.56 0.56 96 1016.6
20260902030110 77 0 0.0 0.0 0.00 0.56 0.56 95 1016.4
20260902024608 77 0 0.0 0.0 0.00 0.56 0.56 95 1016.7
20260902023103 77 0 0.0 0.0 0.01 0.56 0.56 95 1016.5
20260902021605 77 0 0.0 0.0 0.04 0.56 0.56 95 1016.5
20260902020105 77 0 0.0 0.0 0.04 0.56 0.56 95 1016.5
20260902014602 78 0 0.0 0.0 0.04 0.56 0.56 94 1016.5
20260902013102 78 0 1.0 8.0 0.03 0.55 0.55 92 1016.5
20260902011601 80 0 0.0 0.0 0.00 0.52 0.52 92 1016.3
20260902010116 80 0 0.0 0.0 0.00 0.52 0.52 91 1016.1
20260902004602 80 0 0.0 0.0 0.00 0.52 0.52 92 1016.2
20260902003104 80 0 0.0 0.0 0.00 0.52 0.52 91 1016.0
20260902001625 80 0 0.0 0.0 0.00 0.52 0.52 91 1015.8
20260902000103 80 0 0.0 0.0 0.00 0.52 0.52 91 1015.9
20260901234602 81 0 0.0 0.0 0.00 0.52 0.52 91 1015.8
20260901233102 82 0 0.0 3.0 0.00 0.52 0.52 91 1015.7
20260901231602 82 0 1.0 6.0 0.00 0.52 0.52 90 1015.7
20260901230101 82 0 0.0 3.0 0.00 0.52 0.52 90 1015.9
20260901224616 82 0 0.0 0.0 0.01 0.52 0.52 90 1015.4
20260901223103 82 0 0.0 3.0 0.01 0.52 0.52 90 1015.6
20260901221605 81 0 0.0 6.0 0.01 0.52 0.52 89 1015.6
20260901220105 81 6 3.0 13.0 0.01 0.52 0.52 87 1015.3
20260901214604 85 0 0.0 7.0 0.00 0.51 0.51 84 1015.1
20260901213122 84 0 0.0 8.0 0.01 0.51 0.51 85 1015.2
20260901211602 84 6 0.0 7.0 0.01 0.51 0.51 84 1015.2
20260901210117 84 61 1.0 6.0 0.01 0.51 0.51 85 1015.3
20260901204603 83 0 0.0 8.0 0.01 0.57 0.51 88 1015.4
20260901203100 84 84 2.0 12.0 0.01 0.56 0.50 86 1015.5
20260901201601 85 105 3.0 11.0 0.01 0.56 0.50 86 1015.5
20260901200114 85 61 3.0 9.0 0.01 0.56 0.50 87 1015.7
20260901194603 83 112 1.0 7.0 0.01 0.56 0.50 88 1015.8
20260901193112 83 55 0.0 4.0 0.00 0.55 0.49 87 1015.8
20260901191605 82 0 0.0 7.0 0.00 0.55 0.49 88 1015.9
20260901190106 81 58 2.0 7.0 0.00 0.55 0.49 89 1015.9
20260901184610 80 49 4.0 15.0 0.00 0.55 0.49 91 1016.1
20260901183108 81 60 5.0 10.0 0.00 0.55 0.49 88 1016.4
20260901181603 83 118 3.0 12.0 0.00 0.55 0.49 88 1016.6
20260901180100 88 0 0.0 4.0 0.00 0.55 0.49 81 1016.7
20260901174600 85 0 0.0 0.0 0.07 0.55 0.49 88 1016.5
20260901173100 81 112 0.0 2.0 0.16 0.55 0.49 91 1016.9
20260901171602 80 0 0.0 2.0 0.27 0.55 0.49 89 1017.3
20260901170108 79 0 0.0 0.0 0.38 0.55 0.49 94 1017.3
20260901164612 78 0 0.0 7.0 0.34 0.48 0.42 93 1017.4